When you browse on this site, cookies collect data to enhance your experience and personalize the content and advertising you see.
Visit our Privacy Policy to learn more. By continuing to use the site, you agree to this use of cookies and data.
  • In Schweiz
  • Länderverzeichnis
  • Für 7 Tage
  • Wassertemperatur
  • Wetterkarte
  • Widgets
  • user-avatar
    Anmelden

    Stündliche Wetter Winchester

    Heute, 10 Dezember, Dienstag

    Zeit Temperatur Niederschläge Wind Luftdruck Luftfeuchtigkeit
    00:00 +4°C° 0 mm 1 m/S 763 mmHg 86%
    01:00 +3°C° 0 mm 2 m/S 762 mmHg 86%
    02:00 +3°C° 0 mm 2 m/S 762 mmHg 86%
    03:00 +3°C° 0 mm 3 m/S 761 mmHg 86%
    04:00 +3°C° 0 mm 4 m/S 761 mmHg 86%
    05:00 +3°C° 0 mm 5 m/S 760 mmHg 85%
    06:00 +4°C° 0 mm 6 m/S 760 mmHg 85%
    07:00 +5°C° 0 mm 7 m/S 759 mmHg 85%
    08:00 +6°C° 0 mm 8 m/S 758 mmHg 85%
    09:00 +6°C° 0 mm 9 m/S 757 mmHg 86%
    10:00 +7°C° 0.4 mm 10 m/S 756 mmHg 87%
    11:00 +7°C° 0.4 mm 11 m/S 755 mmHg 89%
    12:00 +7°C° 0.4 mm 11 m/S 754 mmHg 90%
    13:00 +8°C° 0.7 mm 11 m/S 752 mmHg 90%
    14:00 +8°C° 0.7 mm 12 m/S 750 mmHg 90%
    15:00 +9°C° 0.7 mm 12 m/S 749 mmHg 90%
    16:00 +9°C° 0.4 mm 12 m/S 748 mmHg 90%
    17:00 +10°C° 0.4 mm 13 m/S 747 mmHg 90%
    18:00 +10°C° 0.4 mm 13 m/S 747 mmHg 90%
    19:00 +8°C° 1.5 mm 11 m/S 747 mmHg 89%
    20:00 +7°C° 1.5 mm 9 m/S 748 mmHg 88%
    21:00 +5°C° 1.5 mm 7 m/S 748 mmHg 88%
    22:00 +5°C° 0.1 mm 6 m/S 749 mmHg 86%
    23:00 +5°C° 0.1 mm 5 m/S 750 mmHg 85%

    Morgen, 11 Dezember, Mittwoch

    Zeit Temperatur Niederschläge Wind Luftdruck Luftfeuchtigkeit
    00:00 +5°C° 0.1 mm 4 m/S 750 mmHg 83%
    01:00 +4°C° 0 mm 4 m/S 750 mmHg 85%
    02:00 +4°C° 0 mm 4 m/S 750 mmHg 86%
    03:00 +3°C° 0 mm 3 m/S 750 mmHg 88%
    04:00 +3°C° 0 mm 3 m/S 750 mmHg 88%
    05:00 +3°C° 0 mm 3 m/S 750 mmHg 88%
    06:00 +3°C° 0 mm 3 m/S 749 mmHg 88%
    07:00 +3°C° 0.1 mm 3 m/S 749 mmHg 87%
    08:00 +3°C° 0.1 mm 3 m/S 749 mmHg 87%
    09:00 +4°C° 0.1 mm 4 m/S 748 mmHg 87%
    10:00 +5°C° 0 mm 4 m/S 748 mmHg 83%
    11:00 +6°C° 0 mm 5 m/S 747 mmHg 79%
    12:00 +7°C° 0 mm 5 m/S 747 mmHg 75%
    13:00 +5°C° 0.2 mm 6 m/S 746 mmHg 77%
    14:00 +4°C° 0.2 mm 6 m/S 746 mmHg 79%
    15:00 +3°C° 0.2 mm 7 m/S 745 mmHg 81%
    16:00 +3°C° 0 mm 6 m/S 746 mmHg 82%
    17:00 +2°C° 0 mm 5 m/S 746 mmHg 84%
    18:00 +1°C° 0 mm 4 m/S 746 mmHg 86%
    19:00 +1°C° 0 mm 4 m/S 747 mmHg 87%
    20:00 +1°C° 0 mm 4 m/S 747 mmHg 87%
    21:00 +1°C° 0 mm 3 m/S 748 mmHg 87%
    22:00 0°C° 0 mm 4 m/S 748 mmHg 87%
    23:00 0°C° 0 mm 4 m/S 748 mmHg 87%

    übermorgen, 12 Dezember, Donnerstag

    Zeit Temperatur Niederschläge Wind Luftdruck Luftfeuchtigkeit
    00:00 0°C° 0 mm 4 m/S 749 mmHg 87%
    01:00 0°C° 0 mm 4 m/S 748 mmHg 87%
    02:00 0°C° 0 mm 4 m/S 748 mmHg 88%
    03:00 0°C° 0 mm 4 m/S 748 mmHg 88%
    04:00 0°C° 0 mm 4 m/S 747 mmHg 87%
    05:00 0°C° 0 mm 4 m/S 747 mmHg 85%
    06:00 0°C° 0 mm 4 m/S 746 mmHg 83%
    07:00 +2°C° 0 mm 5 m/S 745 mmHg 85%
    08:00 +3°C° 0 mm 6 m/S 744 mmHg 86%
    09:00 +4°C° 0 mm 7 m/S 743 mmHg 88%
    10:00 +5°C° 1.6 mm 8 m/S 740 mmHg 89%
    11:00 +6°C° 1.6 mm 9 m/S 738 mmHg 91%
    12:00 +7°C° 1.6 mm 11 m/S 736 mmHg 93%
    13:00 +7°C° 4.4 mm 10 m/S 733 mmHg 92%
    14:00 +8°C° 4.4 mm 10 m/S 731 mmHg 92%
    15:00 +8°C° 4.4 mm 10 m/S 729 mmHg 91%
    16:00 +8°C° 0.5 mm 10 m/S 728 mmHg 86%
    17:00 +7°C° 0.5 mm 10 m/S 727 mmHg 82%
    18:00 +6°C° 0.5 mm 11 m/S 726 mmHg 78%
    19:00 +5°C° 0.1 mm 10 m/S 726 mmHg 79%
    20:00 +3°C° 0.1 mm 10 m/S 726 mmHg 79%
    21:00 +2°C° 0.1 mm 9 m/S 726 mmHg 80%
    22:00 +2°C° 0.2 mm 9 m/S 726 mmHg 79%
    23:00 +1°C° 0.2 mm 9 m/S 726 mmHg 78%

    13 Dezember, Freitag

    Zeit Temperatur Niederschläge Wind Luftdruck Luftfeuchtigkeit
    00:00 +1°C° 0.2 mm 9 m/S 725 mmHg 76%
    01:00 +1°C° 0.1 mm 9 m/S 725 mmHg 78%
    02:00 +1°C° 0.1 mm 10 m/S 724 mmHg 80%
    03:00 +1°C° 0.1 mm 11 m/S 723 mmHg 82%
    04:00 0°C° 0.8 mm 12 m/S 723 mmHg 83%
    05:00 +1°C° 0.8 mm 13 m/S 723 mmHg 83%
    06:00 +2°C° 0.8 mm 15 m/S 723 mmHg 83%
    07:00 +3°C° 0.2 mm 14 m/S 724 mmHg 82%
    08:00 +3°C° 0.2 mm 13 m/S 725 mmHg 81%
    09:00 +3°C° 0.2 mm 13 m/S 726 mmHg 79%
    10:00 +4°C° 0 mm 13 m/S 727 mmHg 78%
    11:00 +4°C° 0 mm 13 m/S 728 mmHg 76%
    12:00 +4°C° 0 mm 13 m/S 729 mmHg 75%
    13:00 +4°C° 0 mm 13 m/S 729 mmHg 75%
    14:00 +3°C° 0 mm 12 m/S 730 mmHg 74%
    15:00 +3°C° 0 mm 12 m/S 731 mmHg 74%
    16:00 +3°C° 0 mm 11 m/S 731 mmHg 74%
    17:00 +2°C° 0 mm 10 m/S 731 mmHg 75%
    18:00 +2°C° 0 mm 10 m/S 732 mmHg 75%
    19:00 +2°C° 0 mm 9 m/S 732 mmHg 75%
    20:00 +2°C° 0 mm 9 m/S 732 mmHg 75%
    21:00 +2°C° 0 mm 9 m/S 732 mmHg 76%
    22:00 +1°C° 0 mm 8 m/S 733 mmHg 78%
    23:00 +2°C° 0 mm 7 m/S 733 mmHg 81%

    14 Dezember, Samstag

    Zeit Temperatur Niederschläge Wind Luftdruck Luftfeuchtigkeit
    00:00 +2°C° 0 mm 7 m/S 733 mmHg 83%
    01:00 +2°C° 0 mm 7 m/S 733 mmHg 82%
    02:00 +2°C° 0 mm 7 m/S 733 mmHg 82%
    03:00 +2°C° 0 mm 7 m/S 734 mmHg 81%
    04:00 +2°C° 0 mm 7 m/S 734 mmHg 81%
    05:00 +2°C° 0 mm 7 m/S 734 mmHg 81%
    06:00 +2°C° 0 mm 6 m/S 734 mmHg 80%
    07:00 +2°C° 0.1 mm 6 m/S 735 mmHg 83%
    08:00 +2°C° 0.1 mm 6 m/S 735 mmHg 86%
    09:00 +3°C° 0.1 mm 7 m/S 735 mmHg 89%
    10:00 +2°C° 0.5 mm 8 m/S 736 mmHg 86%
    11:00 +2°C° 0.5 mm 9 m/S 736 mmHg 82%
    12:00 +2°C° 0.5 mm 10 m/S 737 mmHg 78%
    13:00 +2°C° 0 mm 9 m/S 738 mmHg 76%
    14:00 +2°C° 0 mm 8 m/S 738 mmHg 73%
    15:00 +3°C° 0 mm 7 m/S 739 mmHg 71%
    16:00 +3°C° 0 mm 6 m/S 739 mmHg 72%
    17:00 +2°C° 0 mm 5 m/S 739 mmHg 74%
    18:00 +1°C° 0 mm 4 m/S 739 mmHg 75%
    19:00 +2°C° 1.4 mm 5 m/S 738 mmHg 82%
    20:00 +2°C° 1.4 mm 5 m/S 737 mmHg 88%
    21:00 +3°C° 1.4 mm 6 m/S 737 mmHg 94%
    22:00 +2°C° 0.7 mm 6 m/S 737 mmHg 94%
    23:00 0°C° 0.7 mm 7 m/S 737 mmHg 93%

    15 Dezember, Sonntag

    Zeit Temperatur Niederschläge Wind Luftdruck Luftfeuchtigkeit
    00:00 0°C° 0.7 mm 8 m/S 737 mmHg 92%
    01:00 -1°C° 0.1 mm 6 m/S 737 mmHg 91%
    02:00 0°C° 0.1 mm 5 m/S 738 mmHg 90%
    03:00 -1°C° 0.1 mm 4 m/S 738 mmHg 89%
    04:00 0°C° 0.1 mm 5 m/S 739 mmHg 85%
    05:00 +1°C° 0.1 mm 6 m/S 739 mmHg 81%
    06:00 0°C° 0.1 mm 7 m/S 740 mmHg 78%
    07:00 +2°C° 0 mm 6 m/S 740 mmHg 78%
    08:00 +2°C° 0 mm 6 m/S 741 mmHg 77%
    09:00 +2°C° 0 mm 6 m/S 741 mmHg 77%
    10:00 +3°C° 0 mm 6 m/S 741 mmHg 75%
    11:00 +4°C° 0 mm 6 m/S 741 mmHg 74%
    12:00 +5°C° 0 mm 6 m/S 741 mmHg 72%
    13:00 +5°C° 0 mm 6 m/S 741 mmHg 73%
    14:00 +5°C° 0 mm 6 m/S 741 mmHg 74%
    15:00 +5°C° 0 mm 6 m/S 741 mmHg 75%
    16:00 +4°C° 0.2 mm 6 m/S 741 mmHg 77%
    17:00 +4°C° 0.2 mm 6 m/S 741 mmHg 79%
    18:00 +4°C° 0.2 mm 6 m/S 741 mmHg 80%
    19:00 +4°C° 0.3 mm 6 m/S 741 mmHg 81%
    20:00 +4°C° 0.3 mm 6 m/S 741 mmHg 81%
    21:00 +4°C° 0.3 mm 6 m/S 741 mmHg 82%
    22:00 +4°C° 0.3 mm 7 m/S 741 mmHg 82%
    23:00 +4°C° 0.3 mm 7 m/S 741 mmHg 82%
    Mehr zeigen